Location: Unspecified
(0.0000°N, 0.0000°E)
Time: 20:11:46
(UTC+00:00)

COSMOS 1275 DEB - Visible Passes

Search period start: 14 January 2025 00:00
Search period end: 24 January 2025 00:00
Orbit: 720 x 755 km, 82.9° (Epoch: 12 January)

Date Brightness Start Highest point End Pass type
(mag) Time Alt. Az. Time Alt. Az. Time Alt. Az.
14 Jan ? 19:04:23 10° SE 19:06:47 15° E 19:06:47 15° E visible
14 Jan ? 20:42:48 10° SW 20:46:27 28° WSW 20:46:27 28° WSW visible
15 Jan ? 19:56:32 10° S 20:01:38 90° NNW 20:01:58 79° N visible
16 Jan ? 19:11:42 10° SSE 19:16:05 29° E 19:17:32 25° ENE visible
16 Jan ? 20:53:18 10° WSW 20:56:05 15° W 20:57:13 14° WNW visible
17 Jan ? 20:05:40 10° SSW 20:10:31 45° W 20:12:51 27° NNW visible
18 Jan ? 19:19:55 10° S 19:24:56 58° E 19:28:33 19° NNE visible
19 Jan ? 18:35:46 10° SE 18:39:19 19° E 18:42:51 10° NE visible
19 Jan ? 20:15:21 10° SW 20:19:19 23° W 20:23:17 10° NW visible
20 Jan ? 19:28:36 10° S 19:33:41 71° W 19:38:46 10° N visible
21 Jan ? 18:43:22 10° SSE 18:48:03 37° E 18:52:43 10° NNE visible
21 Jan ? 20:26:29 10° WSW 20:28:02 11° W 20:29:35 10° WNW visible
22 Jan ? 19:37:44 10° SSW 19:42:22 35° W 19:47:00 10° NNW visible
23 Jan ? 18:51:36 10° S 18:56:42 74° E 19:01:47 10° N visible
